period_start,C,m1,H,J0,J1,J2,J3,J4,J5,JA,JB,JC,JD,JJ,JK,JN,#
2016-03-05 00:03:08,0.07,1.42,0.00,23.97,28.02,31.77,14.72,48.73,1031.74,2029.82,2986.75,2744.30,3106.92,599.96,602.80,25.20,0000 0000 0000 0000 000000
2016-03-05 00:08:09,0.04,1.42,0.00,24.02,28.02,31.76,14.73,48.65,1031.75,2029.57,2985.61,2743.44,3105.88,600.12,603.08,25.25,0000 0000 0000 0000 000000
2016-03-05 00:13:10,0.04,1.43,0.00,24.07,28.04,31.75,14.72,48.52,1031.75,2029.28,2984.41,2742.54,3104.83,600.25,602.98,25.30,0000 0000 0000 0000 000000
2016-03-05 00:18:11,0.06,1.43,0.00,24.11,28.05,31.75,14.73,48.73,1031.75,2029.16,2983.02,2741.58,3103.74,600.15,602.80,25.35,0000 0000 0000 0000 000000
2016-03-05 00:23:12,0.07,1.43,0.00,24.15,28.06,31.75,14.75,48.63,1031.74,2029.05,2981.66,2740.59,3102.61,600.37,602.55,25.40,0000 0000 0000 0000 000000
2016-03-05 00:28:13,0.06,1.43,0.00,24.19,28.07,31.76,14.68,48.70,1031.75,2029.02,2980.40,2739.62,3101.55,599.88,602.28,25.45,0000 0000 0000 0000 000000
2016-03-05 00:33:14,0.05,1.44,0.00,24.16,28.10,31.77,14.72,48.73,1031.75,2029.01,2979.08,2738.78,3100.53,600.06,602.60,25.50,0000 0000 0000 0000 000000
2016-03-05 00:38:16,0.06,1.44,0.00,24.22,28.11,31.77,14.68,48.58,1031.75,2029.01,2977.90,2737.86,3099.53,599.97,602.41,25.55,0000 0000 0000 0000 000000
2016-03-05 00:43:17,0.07,1.45,0.00,24.26,28.14,31.78,14.68,48.55,1031.75,2029.00,2976.75,2736.91,3098.37,599.83,602.11,25.60,0000 0000 0000 0000 000000
2016-03-05 00:48:18,0.07,1.45,0.00,24.29,28.16,31.79,14.65,48.62,1031.75,2029.00,2975.50,2735.94,3097.20,600.09,602.33,25.65,0000 0000 0000 0000 000000
2016-03-05 00:53:20,0.08,1.45,0.00,24.34,28.17,31.79,14.69,48.62,1031.76,2029.00,2973.94,2734.92,3096.12,600.37,602.57,25.70,0000 0000 0000 0000 000000
2016-03-05 00:58:21,0.07,1.46,0.00,24.35,28.19,31.79,14.64,48.61,1031.76,2028.99,2972.60,2733.95,3095.00,599.79,601.96,25.75,0000 0000 0000 0000 000000
2016-03-05 01:03:22,0.06,1.46,0.00,24.38,28.21,31.78,14.70,48.73,1031.76,2028.96,2971.34,2732.98,3093.93,599.95,602.13,25.80,0000 0000 0000 0000 000000
2016-03-05 01:08:24,0.07,1.46,0.00,24.41,28.22,31.79,14.72,48.83,1031.76,2028.94,2969.95,2732.01,3092.82,600.00,602.05,25.85,0000 0000 0000 0000 000000
2016-03-05 01:13:25,0.07,1.47,0.00,24.48,28.25,31.79,14.65,48.66,1031.76,2028.87,2968.52,2731.00,3091.66,599.97,601.82,25.90,0000 0000 0000 0000 000000
2016-03-05 01:18:26,0.06,1.47,0.00,24.52,28.25,31.78,14.63,48.72,1031.76,2028.86,2967.29,2730.05,3090.59,599.68,601.50,25.95,0000 0000 0000 0000 000000
2016-03-05 01:23:27,0.04,1.47,0.00,24.52,28.27,31.79,14.65,48.65,1031.76,2028.52,2965.89,2729.10,3089.54,599.59,601.43,26.00,0000 0000 0000 0000 000000
2016-03-05 01:28:29,0.08,1.48,0.00,24.55,28.28,31.77,14.72,48.66,1031.76,2028.49,2964.51,2728.17,3088.47,600.06,601.79,26.05,0000 0000 0000 0000 000000
2016-03-05 01:33:30,0.07,1.48,0.00,24.55,28.30,31.77,14.62,48.76,1031.73,2028.50,2963.29,2727.27,3087.49,600.08,601.78,26.10,0000 0000 0000 0000 000000
2016-03-05 01:38:31,0.03,1.48,0.00,24.59,28.31,31.75,14.60,48.71,1031.72,2028.35,2962.12,2726.39,3086.45,599.79,601.44,26.15,0000 0000 0000 0000 000000
2016-03-05 01:43:32,0.06,1.49,0.00,24.63,28.32,31.71,14.65,48.70,1031.73,2028.09,2960.81,2725.41,3085.33,599.85,601.21,26.20,0000 0000 0000 0000 000000
2016-03-05 01:48:34,0.06,1.49,0.00,24.67,28.32,31.71,14.56,48.76,1031.67,2028.05,2959.62,2724.47,3084.28,599.91,601.35,26.25,0000 0000 0000 0000 000000
2016-03-05 01:53:35,0.06,1.49,0.00,24.65,28.34,31.70,14.59,48.77,1031.52,2028.01,2958.29,2723.58,3083.14,599.60,601.01,26.30,0000 0000 0000 0000 000000
2016-03-05 01:58:37,0.07,1.50,0.00,24.69,28.35,31.69,14.61,48.69,1031.28,2028.00,2957.15,2722.60,3082.04,600.11,601.23,26.35,0000 0000 0000 0000 000000
2016-03-05 02:03:38,0.06,1.50,0.00,24.71,28.35,31.70,14.62,48.95,1031.28,2028.00,2955.85,2721.76,3081.03,600.04,601.24,26.40,0000 0000 0000 0000 000000
2016-03-05 02:08:39,0.07,1.50,0.00,24.74,28.35,31.68,14.65,48.95,1031.28,2028.00,2954.57,2720.87,3080.03,600.09,601.20,26.45,0000 0000 0000 0000 000000
2016-03-05 02:13:40,0.06,1.51,0.00,24.77,28.35,31.65,14.63,48.61,1031.28,2028.00,2953.17,2719.98,3079.03,599.90,600.93,26.50,0000 0000 0000 0000 000000
2016-03-05 02:18:41,0.07,1.51,0.00,24.77,28.34,31.63,14.56,48.66,1031.27,2028.00,2951.85,2719.04,3078.02,599.77,600.78,26.55,0000 0000 0000 0000 000000
2016-03-05 02:23:43,0.07,1.52,0.00,24.79,28.32,31.61,14.72,48.58,1031.27,2028.00,2950.67,2718.13,3077.00,600.26,601.15,26.60,0000 0000 0000 0000 000000
2016-03-05 02:28:44,0.07,1.52,0.00,24.80,28.32,31.60,14.61,48.60,1031.26,2028.00,2949.43,2717.25,3075.97,600.19,601.09,26.65,0000 0000 0000 0000 000000
2016-03-05 02:33:45,0.07,1.52,0.00,24.82,28.32,31.60,14.65,48.58,1031.27,2028.00,2948.28,2716.39,3074.94,600.08,601.00,26.70,0000 0000 0000 0000 000000
2016-03-05 02:38:46,0.07,1.53,0.00,24.83,28.32,31.59,14.63,48.70,1031.27,2028.00,2946.91,2715.57,3073.93,600.00,600.90,26.75,0000 0000 0000 0000 000000
2016-03-05 02:43:48,0.07,1.53,0.00,24.83,28.30,31.58,14.63,48.62,1031.27,2028.00,2945.69,2714.68,3072.93,600.14,601.04,26.80,0000 0000 0000 0000 000000
2016-03-05 02:48:49,0.06,1.53,0.00,24.86,28.30,31.53,14.57,48.63,1031.27,2028.00,2944.27,2713.79,3072.03,599.80,600.63,26.85,0000 0000 0000 0000 000000
2016-03-05 02:53:50,0.06,1.54,0.00,24.87,28.30,31.54,14.74,48.79,1031.27,2028.00,2943.04,2712.87,3071.11,600.41,601.15,26.90,0000 0000 0000 0000 000000
2016-03-05 02:58:51,0.05,1.54,0.00,24.88,28.30,31.52,14.45,48.58,1031.27,2028.00,2941.97,2712.02,3070.09,599.56,600.42,26.95,0000 0000 0000 0000 000000
2016-03-05 03:03:53,0.07,1.54,0.00,24.90,28.30,31.51,14.57,48.65,1031.27,2028.00,2940.86,2711.13,3069.05,599.46,600.31,27.00,0000 0000 0000 0000 000000
2016-03-05 03:08:54,0.07,1.55,0.00,24.93,28.30,31.51,14.61,48.69,1031.27,2028.00,2939.43,2710.20,3068.07,599.93,600.60,27.06,0000 0000 0000 0000 000000
2016-03-05 03:13:55,0.08,1.55,0.00,24.93,28.30,31.48,14.57,48.81,1031.27,2028.00,2937.89,2709.20,3067.07,599.98,600.68,27.11,0000 0000 0000 0000 000000
2016-03-05 03:18:56,0.07,1.55,0.00,24.95,28.30,31.49,14.58,48.75,1031.26,2028.00,2936.60,2708.30,3065.97,599.87,600.66,27.16,0000 0000 0000 0000 000000
2016-03-05 03:23:58,0.09,1.56,0.00,24.97,28.30,31.48,14.52,48.59,1031.26,2028.00,2935.02,2707.22,3064.73,599.77,600.44,27.20,0000 0000 0000 0000 000000
2016-03-05 03:28:59,0.08,1.56,0.00,24.99,28.30,31.47,14.70,48.71,1031.26,2028.00,2933.37,2706.11,3063.47,599.94,600.57,27.26,0000 0000 0000 0000 000000
2016-03-05 03:34:01,0.09,1.57,0.00,24.98,28.28,31.45,14.60,48.59,1031.26,2028.00,2931.68,2704.93,3062.19,599.93,600.53,27.31,0000 0000 0000 0000 000000
2016-03-05 03:39:02,0.08,1.57,0.00,25.00,28.27,31.43,14.66,48.65,1031.25,2028.00,2930.16,2703.83,3060.87,600.18,600.82,27.36,0000 0000 0000 0000 000000
2016-03-05 03:44:03,0.10,1.58,0.00,25.01,28.27,31.43,14.63,48.71,1031.20,2028.00,2928.53,2702.72,3059.66,599.96,600.46,27.41,0000 0000 0000 0000 000000
2016-03-05 03:49:04,0.09,1.58,0.00,25.02,28.27,31.45,14.72,48.88,1031.23,2028.00,2926.78,2701.56,3058.43,600.40,600.95,27.46,0000 0000 0000 0000 000000
2016-03-05 03:54:06,0.08,1.59,0.00,25.02,28.25,31.45,14.63,48.77,1031.22,2028.01,2925.14,2700.44,3057.01,600.08,600.50,27.51,0000 0000 0000 0000 000000
2016-03-05 03:59:07,0.09,1.59,0.00,25.03,28.25,31.47,14.63,48.60,1031.22,2028.02,2923.48,2699.30,3055.76,600.27,600.72,27.56,0000 0000 0000 0000 000000
2016-03-05 04:04:08,0.09,1.60,0.00,25.05,28.25,31.43,14.56,48.59,1031.25,2028.01,2921.78,2698.12,3054.45,599.68,600.26,27.61,0000 0000 0000 0000 000000
2016-03-05 04:09:10,0.08,1.60,0.00,25.05,28.25,31.43,14.60,48.64,1031.26,2028.01,2920.16,2696.93,3053.05,600.04,600.52,27.66,0000 0000 0000 0000 000000
2016-03-05 04:14:11,0.10,1.60,0.00,25.05,28.25,31.43,14.60,48.66,1031.26,2028.00,2918.56,2695.76,3051.69,600.20,600.65,27.71,0000 0000 0000 0000 000000
2016-03-05 04:19:12,0.09,1.61,0.00,25.04,28.25,31.41,14.63,48.77,1031.21,2028.01,2916.87,2694.59,3050.43,600.11,600.63,27.76,0000 0000 0000 0000 000000
2016-03-05 04:24:13,0.09,1.61,0.00,25.04,28.25,31.42,14.53,48.76,1031.01,2028.02,2915.15,2693.40,3049.03,599.83,600.12,27.81,0000 0000 0000 0000 000000
2016-03-05 04:29:15,0.09,1.62,0.00,25.06,28.25,31.41,14.60,48.73,1030.96,2028.01,2913.43,2692.15,3047.64,599.74,600.15,27.86,0000 0000 0000 0000 000000
2016-03-05 04:34:16,0.09,1.62,0.00,25.07,28.25,31.42,14.63,48.81,1031.12,2028.02,2911.68,2690.93,3046.20,600.10,600.46,27.91,0000 0000 0000 0000 000000
2016-03-05 04:39:18,0.10,1.63,0.00,25.07,28.25,31.43,14.54,48.88,1031.17,2028.01,2909.83,2689.68,3044.81,599.74,600.18,27.96,0000 0000 0000 0000 000000
2016-03-05 04:44:19,0.09,1.64,0.00,25.08,28.25,31.44,14.61,48.80,1031.16,2028.02,2908.11,2688.50,3043.44,600.28,600.60,28.01,0000 0000 0000 0000 000000
2016-03-05 04:49:20,0.09,1.64,0.00,25.10,28.25,31.45,14.65,48.86,1031.19,2028.02,2906.36,2687.24,3041.94,600.17,600.50,28.06,0000 0000 0000 0000 000000
2016-03-05 04:54:21,0.10,1.64,0.00,25.11,28.25,31.45,14.50,48.90,1031.03,2028.07,2904.64,2686.10,3040.59,599.85,600.06,28.11,0000 0000 0000 0000 000000
2016-03-05 04:59:22,0.10,1.65,0.00,25.12,28.25,31.44,14.60,48.80,1030.99,2028.03,2902.72,2684.84,3039.24,600.00,600.05,28.16,0000 0000 0000 0000 000000
2016-03-05 05:04:24,0.10,1.65,0.00,25.12,28.23,31.45,14.65,48.94,1030.92,2028.03,2900.98,2683.61,3037.66,600.34,600.48,28.21,0000 0000 0000 0000 000000
2016-03-05 05:09:25,0.09,1.66,0.00,25.14,28.22,31.46,14.59,48.95,1031.00,2028.01,2899.24,2682.37,3036.22,599.88,600.02,28.26,0000 0000 0000 0000 000000
2016-03-05 05:14:27,0.10,1.67,0.00,25.15,28.22,31.48,14.58,48.77,1030.96,2028.01,2897.41,2681.09,3034.77,600.01,600.18,28.31,0000 0000 0000 0000 000000
2016-03-05 05:19:28,0.10,1.67,0.00,25.16,28.22,31.44,14.61,48.74,1030.98,2028.04,2895.71,2679.93,3033.48,600.05,600.01,28.36,0000 0000 0000 0000 000000
2016-03-05 05:24:30,0.10,1.68,0.00,25.19,28.22,31.45,14.51,48.55,1030.99,2028.06,2893.99,2678.77,3032.14,600.00,600.04,28.41,0000 0000 0000 0000 000000
2016-03-05 05:29:31,0.10,1.68,0.00,25.20,28.22,31.44,14.56,48.62,1031.07,2028.07,2892.27,2677.53,3030.70,599.99,600.06,28.46,0000 0000 0000 0000 000000
2016-03-05 05:34:32,0.09,1.69,0.00,25.19,28.22,31.45,14.53,48.71,1030.87,2028.08,2890.61,2676.38,3029.42,600.00,600.00,28.51,0000 0000 0000 0000 000000
2016-03-05 05:39:33,0.08,1.69,0.00,25.20,28.22,31.47,14.56,48.72,1030.83,2028.05,2888.85,2675.13,3027.98,600.01,599.88,28.56,0000 0000 0000 0000 000000
2016-03-05 05:44:34,0.10,1.70,0.00,25.21,28.22,31.47,14.51,48.73,1030.79,2028.07,2887.25,2673.92,3026.61,599.71,599.57,28.61,0000 0000 0000 0000 000000
2016-03-05 05:49:35,0.10,1.70,0.00,25.22,28.22,31.47,14.59,48.85,1030.82,2028.05,2885.51,2672.67,3025.25,600.10,600.04,28.66,0000 0000 0000 0000 000000
2016-03-05 05:54:37,0.09,1.71,0.00,25.21,28.22,31.46,14.57,48.58,1030.81,2028.09,2883.76,2671.54,3023.91,599.91,599.79,28.71,0000 0000 0000 0000 000000
2016-03-05 05:59:38,0.09,1.71,0.00,25.22,28.22,31.47,14.51,48.58,1030.80,2028.05,2882.17,2670.35,3022.49,599.95,599.81,28.76,0000 0000 0000 0000 000000
2016-03-05 06:04:39,0.08,1.72,0.00,25.22,28.22,31.45,14.50,48.51,1030.79,2028.07,2880.40,2669.13,3021.15,599.58,599.49,28.81,0000 0000 0000 0000 000000
2016-03-05 06:09:40,0.10,1.72,0.00,25.22,28.22,31.46,14.64,48.68,1030.78,2028.07,2878.75,2667.94,3019.79,600.04,599.88,28.86,0000 0000 0000 0000 000000
2016-03-05 06:14:41,0.10,1.73,0.00,25.22,28.22,31.48,14.64,48.75,1030.78,2028.18,2877.23,2666.80,3018.54,600.08,599.87,28.91,0000 0000 0000 0000 000000
2016-03-05 06:19:43,0.09,1.73,0.00,25.23,28.22,31.44,14.57,48.61,1030.78,2028.09,2875.50,2665.57,3017.09,600.30,600.14,28.96,0000 0000 0000 0000 000000
2016-03-05 06:24:44,0.10,1.73,0.00,25.23,28.21,31.45,14.60,48.73,1030.78,2028.07,2873.65,2664.35,3015.69,600.07,599.87,29.01,0000 0000 0000 0000 000000
2016-03-05 06:29:45,0.08,1.74,0.00,25.25,28.20,31.45,14.52,48.53,1030.79,2028.12,2872.02,2663.19,3014.39,599.82,599.61,29.06,0000 0000 0000 0000 000000
2016-03-05 06:34:46,0.10,1.75,0.00,25.25,28.20,31.47,14.63,48.52,1030.79,2028.09,2870.27,2661.91,3012.96,600.18,599.99,29.11,0000 0000 0000 0000 000000
2016-03-05 06:39:48,0.10,1.75,0.00,25.25,28.20,31.44,14.60,48.61,1030.88,2028.15,2868.60,2660.80,3011.59,599.92,599.80,29.16,0000 0000 0000 0000 000000
2016-03-05 06:44:49,0.10,1.75,0.00,25.23,28.18,31.45,14.66,48.64,1030.96,2028.19,2866.93,2659.63,3010.39,600.11,600.04,29.21,0000 0000 0000 0000 000000
2016-03-05 06:49:51,0.10,1.76,0.00,25.24,28.17,31.47,14.67,48.62,1030.99,2028.27,2865.30,2658.54,3009.05,600.26,600.22,29.26,0000 0000 0000 0000 000000
2016-03-05 06:54:52,0.13,1.77,0.00,25.23,28.17,31.44,14.49,48.51,1031.12,2028.58,2863.74,2657.42,3007.82,599.72,599.69,29.31,0000 0000 0000 0000 000000
2016-03-05 06:59:53,0.06,1.77,0.00,25.24,28.17,31.45,14.50,48.59,1031.12,2028.43,2862.09,2656.23,3006.59,599.47,599.56,29.36,0000 0000 0000 0000 000000
2016-03-05 07:04:55,0.10,1.78,0.00,25.26,28.17,31.44,14.56,48.67,1031.18,2028.50,2860.45,2655.07,3005.26,600.01,600.01,29.41,0000 0000 0000 0000 000000
2016-03-05 07:09:56,0.11,1.78,0.00,25.27,28.17,31.43,14.58,48.60,1031.20,2028.82,2858.86,2653.97,3004.03,599.86,599.86,29.46,0000 0000 0000 0000 000000
2016-03-05 07:14:57,0.10,1.79,0.00,25.27,28.17,31.43,14.57,48.60,1031.24,2028.82,2857.14,2652.76,3002.72,599.98,600.05,29.51,0000 0000 0000 0000 000000
2016-03-05 07:19:59,0.07,1.79,0.00,25.26,28.15,31.43,14.55,48.65,1031.25,2028.60,2855.48,2651.56,3001.37,600.07,600.11,29.56,0000 0000 0000 0000 000000
2016-03-05 07:25:00,0.09,1.79,0.00,25.26,28.15,31.43,14.56,48.48,1031.26,2028.53,2853.80,2650.39,3000.02,599.89,599.89,29.61,0000 0000 0000 0000 000000
2016-03-05 07:30:01,0.10,1.80,0.00,25.27,28.15,31.40,14.56,48.61,1031.25,2028.73,2852.28,2649.32,2998.74,600.06,600.01,29.66,0000 0000 0000 0000 000000
2016-03-05 07:35:03,0.09,1.81,0.00,25.27,28.15,31.41,14.50,48.59,1031.08,2028.84,2850.74,2648.27,2997.53,599.97,599.94,29.71,0000 0000 0000 0000 000000
2016-03-05 07:40:04,0.09,1.81,0.00,25.27,28.15,31.41,14.60,48.58,1030.90,2028.85,2849.07,2647.12,2996.30,600.25,600.07,29.76,0000 0000 0000 0000 000000
2016-03-05 07:45:06,0.09,1.81,0.00,25.26,28.15,31.41,14.63,48.69,1030.89,2028.85,2847.43,2645.93,2994.92,600.05,599.96,29.81,0000 0000 0000 0000 000000
2016-03-05 07:50:07,0.09,1.82,0.00,25.27,28.15,31.42,14.44,48.43,1030.96,2028.86,2845.89,2644.88,2993.63,599.78,599.62,29.86,0000 0000 0000 0000 000000
2016-03-05 07:55:08,0.09,1.82,0.00,25.27,28.15,31.41,14.62,48.59,1031.14,2028.83,2844.23,2643.71,2992.37,600.11,599.96,29.91,0000 0000 0000 0000 000000
2016-03-05 08:00:10,0.09,1.83,0.00,25.27,28.15,31.39,14.58,48.59,1031.07,2028.81,2842.56,2642.56,2991.05,599.79,599.70,29.96,0000 0000 0000 0000 000000
2016-03-05 08:05:11,0.10,1.83,0.00,25.27,28.15,31.37,14.57,48.49,1031.00,2028.85,2840.94,2641.48,2989.75,600.11,599.94,30.01,0000 0000 0000 0000 000000
2016-03-05 08:10:13,0.07,1.84,0.00,25.27,28.14,31.39,14.58,48.63,1030.97,2028.80,2839.57,2640.37,2988.48,599.85,599.70,30.06,0000 0000 0000 0000 000000
2016-03-05 08:15:14,0.09,1.84,0.00,25.25,28.13,31.39,14.57,48.55,1031.14,2028.81,2837.91,2639.28,2987.22,599.97,600.03,30.11,0000 0000 0000 0000 000000
2016-03-05 08:20:15,0.09,1.85,0.00,25.25,28.12,31.39,14.57,48.44,1031.25,2028.79,2836.22,2638.10,2985.90,600.08,600.13,30.16,0000 0000 0000 0000 000000
2016-03-05 08:25:17,0.08,1.85,0.00,25.27,28.12,31.38,14.62,48.66,1031.25,2028.74,2834.57,2636.90,2984.64,600.20,600.19,30.21,0000 0000 0000 0000 000000
2016-03-05 08:30:18,0.08,1.86,0.00,25.27,28.12,31.39,14.54,48.48,1031.24,2028.61,2832.98,2635.85,2983.38,599.65,599.67,30.26,0000 0000 0000 0000 000000
2016-03-05 08:35:19,0.10,1.86,0.00,25.26,28.12,31.40,14.57,48.52,1031.26,2028.81,2831.53,2634.78,2982.18,600.11,600.16,30.31,0000 0000 0000 0000 000000
2016-03-05 08:40:20,0.09,1.87,0.00,25.25,28.12,31.37,14.62,48.48,1031.26,2028.66,2829.90,2633.60,2980.89,600.10,600.17,30.36,0000 0000 0000 0000 000000
2016-03-05 08:45:22,0.10,1.87,0.00,25.25,28.12,31.38,14.57,48.47,1031.27,2028.85,2828.45,2632.63,2979.72,600.33,600.34,30.41,0000 0000 0000 0000 000000
2016-03-05 08:50:23,0.09,1.88,0.00,25.25,28.12,31.39,14.48,48.56,1031.27,2028.86,2826.91,2631.58,2978.50,599.78,599.79,30.46,0000 0000 0000 0000 000000
2016-03-05 08:55:25,0.08,1.88,0.00,25.25,28.11,31.40,14.56,48.52,1031.27,2028.79,2825.38,2630.43,2977.22,599.97,600.00,30.51,0000 0000 0000 0000 000000
2016-03-05 09:00:26,0.08,1.89,0.00,25.24,28.10,31.37,14.55,48.49,1031.27,2028.82,2823.82,2629.42,2976.05,599.88,599.96,30.56,0000 0000 0000 0000 000000
2016-03-05 09:05:27,0.09,1.89,0.00,25.23,28.10,31.39,14.55,48.42,1031.27,2028.84,2822.44,2628.37,2974.79,600.25,600.32,30.61,0000 0000 0000 0000 000000
2016-03-05 09:10:28,0.08,1.89,0.00,25.24,28.10,31.38,14.59,48.53,1031.28,2028.78,2820.93,2627.33,2973.58,600.18,600.11,30.66,0000 0000 0000 0000 000000
2016-03-05 09:15:29,0.09,1.90,0.00,25.22,28.10,31.38,14.59,48.47,1031.27,2028.90,2819.52,2626.34,2972.48,599.79,599.91,30.71,0000 0000 0000 0000 000000
2016-03-05 09:20:31,0.08,1.90,0.00,25.22,28.09,31.39,14.53,48.34,1031.28,2028.86,2817.90,2625.26,2971.30,599.88,600.17,30.76,0000 0000 0000 0000 000000
2016-03-05 09:25:32,0.08,1.91,0.00,25.21,28.07,31.40,14.64,48.53,1031.28,2028.91,2816.51,2624.23,2970.05,600.20,600.46,30.81,0000 0000 0000 0000 000000
2016-03-05 09:30:33,0.09,1.91,0.00,25.22,28.07,31.39,14.52,48.59,1031.28,2028.94,2815.02,2623.19,2968.86,599.81,599.97,30.86,0000 0000 0000 0000 000000
2016-03-05 09:35:34,0.08,1.92,0.00,25.22,28.07,31.39,14.62,48.55,1031.28,2028.95,2813.55,2622.31,2967.69,600.11,600.24,30.91,0000 0000 0000 0000 000000
2016-03-05 09:40:35,0.09,1.92,0.00,25.22,28.07,31.40,14.51,48.52,1031.28,2028.96,2812.04,2621.26,2966.50,599.96,600.09,30.96,0000 0000 0000 0000 000000
2016-03-05 09:45:37,0.08,1.93,0.00,25.21,28.07,31.38,14.56,48.65,1031.28,2028.96,2810.53,2620.16,2965.27,600.02,600.20,31.01,0000 0000 0000 0000 000000
2016-03-05 09:50:38,0.08,1.93,0.00,25.20,28.07,31.38,14.64,48.77,1031.27,2028.98,2809.03,2619.14,2964.12,600.07,600.25,31.06,0000 0000 0000 0000 000000
2016-03-05 09:55:39,0.08,1.93,0.00,25.20,28.07,31.38,14.64,48.64,1031.28,2028.98,2807.65,2618.13,2962.95,600.18,600.36,31.11,0000 0000 0000 0000 000000
2016-03-05 10:00:41,0.09,1.94,0.00,25.18,28.06,31.37,14.62,48.84,1031.27,2028.98,2806.16,2617.10,2961.74,600.06,600.27,31.16,0000 0000 0000 0000 000000
2016-03-05 10:05:42,0.08,1.94,0.00,25.17,28.05,31.38,14.58,48.76,1031.26,2028.98,2804.73,2616.08,2960.57,600.03,600.18,31.21,0000 0000 0000 0000 000000
2016-03-05 10:10:43,0.08,1.95,0.00,25.17,28.05,31.37,14.58,48.82,1031.26,2028.98,2803.16,2615.01,2959.43,600.05,600.37,31.27,0000 0000 0000 0000 000000
2016-03-05 10:15:45,0.09,1.95,0.00,25.17,28.05,31.38,14.55,48.57,1031.26,2028.98,2801.63,2613.94,2958.15,599.81,600.00,31.32,0000 0000 0000 0000 000000
2016-03-05 10:20:46,0.08,1.96,0.00,25.18,28.05,31.37,14.49,48.53,1031.26,2028.99,2800.26,2612.90,2956.99,599.70,599.96,31.37,0000 0000 0000 0000 000000
2016-03-05 10:25:47,0.10,1.96,0.00,25.18,28.05,31.38,14.61,48.63,1031.26,2028.99,2798.68,2611.87,2955.85,599.96,600.10,31.42,0000 0000 0000 0000 000000
2016-03-05 10:30:48,0.09,1.97,0.00,25.17,28.05,31.37,14.55,48.39,1031.24,2028.99,2797.14,2610.78,2954.52,599.80,599.92,31.47,0000 0000 0000 0000 000000
2016-03-05 10:35:50,0.09,1.97,0.00,25.17,28.04,31.38,14.56,48.58,1031.20,2028.99,2795.66,2609.75,2953.47,599.84,600.05,31.52,0000 0000 0000 0000 000000
2016-03-05 10:40:51,0.08,1.97,0.00,25.18,28.03,31.37,14.66,48.54,1031.03,2028.99,2794.17,2608.69,2952.25,600.10,600.12,31.57,0000 0000 0000 0000 000000
2016-03-05 10:45:52,0.08,1.98,0.00,25.17,28.02,31.37,14.56,48.55,1030.97,2028.99,2792.74,2607.70,2951.07,599.91,599.98,31.62,0000 0000 0000 0000 000000
2016-03-05 10:50:53,0.09,1.98,0.00,25.17,28.02,31.35,14.62,48.65,1030.80,2028.99,2791.16,2606.55,2949.76,600.15,600.22,31.67,0000 0000 0000 0000 000000
2016-03-05 10:55:55,0.09,1.99,0.00,25.16,28.02,31.38,14.47,48.63,1030.79,2028.99,2789.59,2605.54,2948.60,599.86,599.85,31.72,0000 0000 0000 0000 000000
2016-03-05 11:00:56,0.08,1.99,0.00,25.15,28.02,31.38,14.50,48.46,1030.79,2028.99,2788.04,2604.48,2947.42,599.74,599.82,31.77,0000 0000 0000 0000 000000
2016-03-05 11:05:57,0.09,2.00,0.00,25.15,28.02,31.37,14.53,48.52,1030.79,2028.99,2786.59,2603.49,2946.24,599.98,600.09,31.82,0000 0000 0000 0000 000000
2016-03-05 11:10:59,0.08,2.00,0.00,25.16,28.02,31.37,14.56,48.68,1030.78,2028.99,2785.09,2602.41,2945.05,599.84,599.83,31.87,0000 0000 0000 0000 000000
2016-03-05 11:16:00,0.09,2.01,0.00,25.15,28.01,31.37,14.63,48.62,1030.78,2028.99,2783.62,2601.31,2943.87,600.20,600.18,31.92,0000 0000 0000 0000 000000
2016-03-05 11:21:01,0.09,2.01,0.00,25.14,28.00,31.36,14.58,48.83,1030.78,2028.99,2781.97,2600.24,2942.69,599.99,599.98,31.97,0000 0000 0000 0000 000000
2016-03-05 11:26:02,0.09,2.01,0.00,25.13,28.00,31.38,14.58,48.88,1030.78,2028.99,2780.52,2599.29,2941.52,599.71,599.73,32.02,0000 0000 0000 0000 000000
2016-03-05 11:31:03,0.08,2.02,0.00,25.13,27.98,31.35,14.60,48.73,1030.78,2028.99,2779.01,2598.25,2940.44,600.26,600.29,32.07,0000 0000 0000 0000 000000
2016-03-05 11:36:05,0.08,2.02,0.00,25.10,27.97,31.35,14.44,48.57,1030.78,2028.99,2777.51,2597.23,2939.25,599.87,599.96,32.12,0000 0000 0000 0000 000000
2016-03-05 11:41:06,0.08,2.03,0.00,25.09,27.97,31.35,14.49,48.59,1030.78,2028.99,2776.02,2596.22,2938.11,599.70,599.92,32.17,0000 0000 0000 0000 000000
2016-03-05 11:46:07,0.09,2.03,0.00,25.07,27.96,31.36,14.53,48.65,1030.78,2028.99,2774.55,2595.18,2936.92,599.87,599.93,32.22,0000 0000 0000 0000 000000
2016-03-05 11:51:09,0.08,2.04,0.00,25.07,27.95,31.35,14.59,48.38,1030.78,2028.99,2773.25,2594.18,2935.74,599.98,600.21,32.27,0000 0000 0000 0000 000000
2016-03-05 11:56:10,0.08,2.04,0.00,25.07,27.95,31.35,14.58,48.36,1030.78,2028.99,2771.88,2593.29,2934.64,599.65,599.79,32.32,0000 0000 0000 0000 000000
2016-03-05 12:01:11,0.08,2.05,0.00,25.06,27.95,31.36,14.68,48.52,1030.78,2029.00,2770.50,2592.22,2933.47,600.11,600.33,32.37,0000 0000 0000 0000 000000
2016-03-05 12:06:13,0.09,2.05,0.00,25.05,27.95,31.33,14.60,48.51,1030.78,2029.00,2768.81,2591.09,2932.25,600.07,600.31,32.42,0000 0000 0000 0000 000000
2016-03-05 12:11:14,0.08,2.06,0.00,25.05,27.93,31.34,14.56,48.58,1030.66,2029.01,2767.33,2590.05,2931.11,599.71,599.84,32.47,0000 0000 0000 0000 000000
2016-03-05 12:16:15,0.09,2.06,0.00,25.05,27.92,31.36,14.55,48.73,1030.32,2029.01,2765.72,2588.99,2929.91,599.80,599.72,32.52,0000 0000 0000 0000 000000
2016-03-05 12:21:17,0.09,2.06,0.00,25.03,27.92,31.36,14.50,48.56,1030.31,2029.00,2764.13,2587.89,2928.62,599.70,599.65,32.57,0000 0000 0000 0000 000000
2016-03-05 12:26:18,0.10,2.07,0.00,25.03,27.92,31.40,14.58,48.73,1030.36,2029.02,2762.52,2586.75,2927.44,600.19,600.21,32.62,0000 0000 0000 0000 000000
2016-03-05 12:31:19,0.09,2.07,0.00,25.04,27.92,31.35,14.65,48.73,1030.34,2029.03,2760.91,2585.66,2926.12,600.13,600.13,32.67,0000 0000 0000 0000 000000
2016-03-05 12:36:20,0.09,2.08,0.00,25.02,27.92,31.36,14.54,48.67,1030.34,2029.02,2759.43,2584.59,2924.83,599.84,599.81,32.72,0000 0000 0000 0000 000000
2016-03-05 12:41:22,0.09,2.08,0.00,25.02,27.91,31.35,14.59,48.73,1030.32,2029.02,2757.87,2583.47,2923.64,599.92,599.88,32.78,0000 0000 0000 0000 000000
2016-03-05 12:46:23,0.09,2.09,0.00,25.02,27.90,31.32,14.60,48.61,1030.31,2029.04,2756.33,2582.43,2922.37,600.17,600.07,32.83,0000 0000 0000 0000 000000
2016-03-05 12:51:25,0.09,2.09,0.00,25.00,27.90,31.32,14.60,48.60,1030.30,2029.04,2754.71,2581.34,2921.09,600.08,600.10,32.88,0000 0000 0000 0000 000000
2016-03-05 12:56:26,0.09,2.10,0.00,25.00,27.90,31.33,14.59,48.60,1030.29,2029.06,2753.16,2580.18,2919.80,600.11,600.12,32.93,0000 0000 0000 0000 000000